[[{"header":{"parameterUnit":"m.s-1","parameterCategory":1,"la1":30.2991,"la2":30.254,"lo1":-89.0895,"lo2":-89.0444,"dy":0.0017,"dx":0.0017,"nx":28,"ny":28,"refTime":"2024-08-09T15:00:00:Z","depth":0,"parameterNumber":2,"parameterNumberName":"U-component_of_WINDS"},"data":[0,0,0,0,0,0,0,0,0,0,0,0,0,0,0,0,0,0,0,0,0,0,0,0,0,0,0,0,0,0,0,0,0,0,0,0,0,0,0,0,0,0,0,0,0,0,0,0,0,0,0,0,0,0,0,0,0,0,1.3744,1.3744,0,1.3704,1.3703,1.3703,1.357,1.3567,1.3564,1.3561,1.3526,1.3528,1.353,0,0,0,0,0,0,0,0,0,0,0,0,0,1.3711,1.3712,1.3744,1.3744,1.3743,1.3704,1.3703,1.3703,1.357,1.3566,1.3563,1.3559,1.3525,1.3527,1.353,0,0,0,0,0,0,0,0,0,0,0,0,0,1.3704,1.3713,1.3744,1.3672,1.3665,1.3704,1.3703,1.3703,1.3571,1.3566,1.3562,1.3558,1.3525,1.3527,1.353,1.3637,0,0,1.3539,1.354,0,0,0,0,0,0,0,0,1.3704,1.3705,1.3683,1.3677,1.3669,1.3637,1.3679,1.3681,1.3572,1.3607,1.3561,1.3555,1.3567,1.3566,1.3568,1.3636,1.3634,1.3539,1.3541,1.3542,1.3543,0,0,0,0,0,0,0,1.3705,1.3706,1.3728,1.3683,1.3675,1.3643,1.3637,1.3679,1.3613,1.3604,1.3594,1.359,1.3562,1.3566,1.3567,1.3634,1.3539,1.3541,1.3543,1.3544,1.3788,1.3793,0,0,0,0,0,0,1.3715,1.3707,1.373,1.3727,1.3676,1.3648,1.3641,1.3652,1.3612,1.3601,1.3594,1.3584,1.3564,1.3564,1.3565,1.3689,1.3542,1.3544,1.3546,1.3783,1.3789,1.3794,0,0,0,0,0,0,1.3715,1.3718,1.3731,1.3715,1.3714,1.3653,1.3667,1.3654,1.3657,1.3605,1.3593,1.361,1.356,1.3561,1.362,1.3686,1.3546,1.3548,1.3778,1.3785,1.3792,1.3939,0,0,0,0,0,0,1.3714,1.3719,1.3758,1.3716,1.3715,1.3786,1.3671,1.3656,1.3662,1.3648,1.3617,1.3607,1.3557,1.3617,1.3623,1.3688,1.355,1.3772,1.3781,1.3789,1.3928,1.395,1.3969,0,0,0,0,0,1.3714,1.3802,1.3761,1.3764,1.3763,1.379,1.379,1.3728,1.3667,1.3707,1.3674,1.3608,1.3677,1.3624,1.363,1.3696,1.3767,1.3778,1.3789,1.3918,1.3946,1.3968,0,0,0,0,0,0,1.3856,1.3796,1.3749,1.3826,1.3814,1.3768,1.3816,1.3759,1.3765,1.3753,1.3677,1.3671,1.3742,1.3724,1.3666,1.3798,1.3711,1.3724,1.3808,1.3833,1.3854,1.3858,1.3553,0,0,0,0,0,1.3896,1.3922,1.3868,1.3942,1.3937,1.3878,1.3888,1.3841,1.3826,1.3821,1.3792,1.3782,1.3801,1.3815,1.383,1.3923,1.3916,1.3972,1.3992,1.401,1.4023,1.4072,1.4097,1.383,1.383,1.3829,0,0,1.398,1.395,1.3971,1.3969,1.3954,1.3985,1.3875,1.3911,1.3934,1.3827,1.3881,1.3859,1.3843,1.392,1.3952,1.3908,1.4094,1.4023,1.4038,1.4041,1.4086,1.4111,1.4134,1.3837,1.3836,1.3835,0,0,1.4149,1.4128,1.4187,1.4174,1.4151,1.4111,1.4125,1.4087,1.4068,1.412,1.4041,1.4067,1.4101,1.4093,1.4094,1.4257,1.4199,1.4264,1.4374,1.4423,1.4444,1.4462,1.4523,1.4546,1.4276,1.4277,1.4277,0,1.4257,1.4298,1.4226,1.4267,1.4269,1.4171,1.4232,1.4223,1.4208,1.4213,1.4161,1.4203,1.4185,1.4259,1.4299,1.4302,1.4318,1.4269,1.4446,1.4464,1.448,1.4537,1.456,1.4285,1.4284,1.4283,1.4283,0,1.4432,1.4462,1.4512,1.4498,1.4505,1.4557,1.4494,1.4511,1.4463,1.4428,1.4483,1.4458,1.4466,1.4479,1.4434,1.4548,1.4521,1.4459,1.4371,1.4515,1.4568,1.4589,1.4297,1.4294,1.4292,1.429,0,0,1.4694,1.4636,1.4657,1.4649,1.4616,1.4639,1.4685,1.4691,1.4708,1.47,1.4739,1.477,1.4712,1.4713,1.4665,1.4707,1.4842,1.464,1.4639,1.4681,1.4968,1.5017,1.5044,1.48,1.4804,1.4807,1.497,0,1.4856,1.4931,1.4867,1.4955,1.4982,1.4888,1.4929,1.4915,1.4883,1.4903,1.4868,1.4892,1.4813,1.4813,1.4851,1.4818,1.4899,1.4804,1.4839,1.4841,1.485,1.5071,1.5123,1.5278,1.499,1.4994,1.4996,0,1.5056,1.5055,1.5146,1.5107,1.5116,1.5154,1.5154,1.5173,1.5155,1.5129,1.5129,1.5069,1.5114,1.5024,1.5087,1.5024,1.5034,1.5019,1.5024,1.5028,1.493,1.5084,1.5326,1.5351,1.5027,1.5025,1.5023,0,1.5241,1.5262,1.5319,1.5315,1.527,1.5299,1.5283,1.5259,1.5267,1.5267,1.5272,1.5278,1.5283,1.529,1.5235,1.5174,1.5305,1.521,1.5287,1.5289,1.5322,1.5322,1.5573,1.5324,1.5323,1.5323,1.5322,0,1.5431,1.5491,1.5401,1.5437,1.5502,1.5427,1.5494,1.5467,1.5447,1.5478,1.5396,1.5427,1.5349,1.5372,1.5329,1.5388,1.539,1.5373,1.5361,1.5382,1.5385,1.539,1.5379,1.5329,1.5327,1.5326,1.5325,0,1.565,1.5592,1.5649,1.56,1.5589,1.564,1.5599,1.5631,1.5593,1.5632,1.5637,1.5578,1.5601,1.5545,1.556,1.553,1.5617,1.5586,1.5623,1.5615,1.5696,1.5691,1.5963,1.5996,1.5722,1.5725,1.5727,0,1.5777,1.5821,1.5776,1.5789,1.5776,1.5799,1.5805,1.5733,1.5744,1.5725,1.5761,1.5776,1.5784,1.5825,1.5786,1.5797,1.5768,1.5862,1.5769,1.5789,1.5773,1.5773,1.5778,1.5883,1.5886,1.5889,1.5891,0,1.601,1.5978,1.5989,1.5991,1.6001,1.5999,1.5992,1.6008,1.5931,1.5947,1.5968,1.5975,1.5989,1.6006,1.6008,1.5992,1.5931,1.592,1.5939,1.5963,1.5984,1.5976,1.5679,1.5915,1.5913,1.5911,1.591,1.5909,1.6188,1.6223,1.6197,1.6213,1.6199,1.6194,1.6221,1.6185,1.6201,1.6205,1.6161,1.6193,1.6173,1.6168,1.6159,1.6183,1.6141,1.6168,1.6175,1.6184,1.6199,1.5976,1.6183,1.6182,1.6182,1.6181,1.618,0,1.6419,1.6397,1.6411,1.6403,1.6416,1.6352,1.634,1.6356,1.6384,1.6369,1.6379,1.6404,1.6419,1.6379,1.639,1.6417,1.6389,1.6423,1.6422,1.642,1.6235,1.6219,1.6445,1.6445,1.6445,1.6445,1.6445,1.6445,1.6541,1.6597,1.6562,1.661,1.6588,1.6615,1.6615,1.661,1.6598,1.6629,1.6641,1.6613,1.6589,1.6597,1.6609,1.6597,1.6607,1.6651,1.663,1.6458,1.6433,1.6408,1.6393,1.6652,1.6653,1.6813,1.6815,1.6816]},{"header":{"parameterUnit":"m.s-1","parameterCategory":1,"la1":30.2991,"la2":30.254,"lo1":-89.0895,"lo2":-89.0444,"dy":0.0017,"dx":0.0017,"nx":28,"ny":28,"refTime":"2024-08-09T15:00:00:Z","depth":0,"parameterNumber":3,"parameterNumberName":"V-component_of_WINDS"},"data":[0,0,0,0,0,0,0,0,0,0,0,0,0,0,0,0,0,0,0,0,0,0,0,0,0,0,0,0,0,0,0,0,0,0,0,0,0,0,0,0,0,0,0,0,0,0,0,0,0,0,0,0,0,0,0,0,0,0,-1.3625,-1.3626,0,-1.3718,-1.3719,-1.372,-1.3784,-1.3785,-1.3785,-1.3786,-1.3878,-1.388,-1.3882,0,0,0,0,0,0,0,0,0,0,0,0,0,-1.3501,-1.3503,-1.3625,-1.3626,-1.3628,-1.3718,-1.3719,-1.3721,-1.3784,-1.3785,-1.3785,-1.3786,-1.3878,-1.388,-1.3882,0,0,0,0,0,0,0,0,0,0,0,0,0,-1.3571,-1.3504,-1.3625,-1.367,-1.3675,-1.3718,-1.3719,-1.3721,-1.3784,-1.3785,-1.3786,-1.3786,-1.3877,-1.388,-1.3883,-1.3887,0,0,-1.3892,-1.3893,0,0,0,0,0,0,0,0,-1.3567,-1.3575,-1.3663,-1.3667,-1.3673,-1.3741,-1.371,-1.3776,-1.3784,-1.3743,-1.3786,-1.3787,-1.3832,-1.3838,-1.3854,-1.3891,-1.3895,-1.3892,-1.3894,-1.3895,-1.3896,0,0,0,0,0,0,0,-1.3562,-1.3571,-1.3662,-1.3664,-1.367,-1.3685,-1.3696,-1.3723,-1.3782,-1.3746,-1.3751,-1.3762,-1.3835,-1.3851,-1.3857,-1.3896,-1.3892,-1.3895,-1.3897,-1.3898,-1.3942,-1.3941,0,0,0,0,0,0,-1.355,-1.3567,-1.3659,-1.3665,-1.3621,-1.3687,-1.3699,-1.3718,-1.3782,-1.3792,-1.3761,-1.3764,-1.3846,-1.3853,-1.386,-1.3869,-1.3895,-1.3898,-1.39,-1.3942,-1.3942,-1.3941,0,0,0,0,0,0,-1.3547,-1.3558,-1.3655,-1.3617,-1.3631,-1.3688,-1.3709,-1.3719,-1.3736,-1.3793,-1.3803,-1.3767,-1.3846,-1.3856,-1.388,-1.3873,-1.3899,-1.3902,-1.3943,-1.3942,-1.3941,-1.3887,0,0,0,0,0,0,-1.3543,-1.3556,-1.3559,-1.3617,-1.3633,-1.3674,-1.3709,-1.3721,-1.3741,-1.3747,-1.3801,-1.3811,-1.3848,-1.3875,-1.3883,-1.3878,-1.3905,-1.3944,-1.3943,-1.3942,-1.389,-1.3884,-1.388,0,0,0,0,0,-1.3539,-1.3539,-1.3558,-1.3569,-1.3637,-1.3673,-1.3682,-1.3725,-1.3741,-1.3743,-1.378,-1.3809,-1.3873,-1.3877,-1.3886,-1.3882,-1.3944,-1.3943,-1.3942,-1.3892,-1.3885,-1.388,0,0,0,0,0,0,-1.3477,-1.3547,-1.357,-1.3589,-1.3625,-1.3684,-1.3688,-1.3717,-1.3748,-1.3752,-1.3803,-1.3815,-1.3834,-1.3861,-1.3864,-1.389,-1.3912,-1.3913,-1.3871,-1.3866,-1.3861,-1.3854,-1.3907,0,0,0,0,0,-1.3466,-1.349,-1.355,-1.3561,-1.3578,-1.363,-1.3647,-1.3678,-1.3717,-1.3732,-1.377,-1.3806,-1.3834,-1.3852,-1.3881,-1.3894,-1.3907,-1.3896,-1.3891,-1.3887,-1.3886,-1.3896,-1.3892,-1.3936,-1.3936,-1.3936,0,0,-1.3443,-1.3484,-1.3496,-1.355,-1.3581,-1.3605,-1.3642,-1.3665,-1.3683,-1.3735,-1.376,-1.379,-1.3833,-1.3852,-1.3862,-1.3875,-1.3877,-1.3885,-1.3881,-1.3883,-1.3894,-1.389,-1.3886,-1.3935,-1.3935,-1.3936,0,0,-1.3412,-1.3446,-1.346,-1.3491,-1.3538,-1.3573,-1.3576,-1.3631,-1.3653,-1.368,-1.3719,-1.3741,-1.3788,-1.3818,-1.3839,-1.3821,-1.3849,-1.3829,-1.3803,-1.3812,-1.3808,-1.3806,-1.3799,-1.3796,-1.3829,-1.3829,-1.3829,0,-1.3377,-1.3415,-1.3463,-1.3484,-1.3506,-1.3556,-1.3569,-1.3597,-1.3651,-1.3665,-1.3679,-1.374,-1.3773,-1.38,-1.3795,-1.3811,-1.3816,-1.3823,-1.3805,-1.3803,-1.3801,-1.3795,-1.3793,-1.3826,-1.3826,-1.3826,-1.3827,0,-1.3369,-1.3395,-1.34,-1.3452,-1.3475,-1.3492,-1.3542,-1.356,-1.3588,-1.3621,-1.3648,-1.3689,-1.3728,-1.3737,-1.3764,-1.3767,-1.3774,-1.3796,-1.3819,-1.3793,-1.3789,-1.3787,-1.3822,-1.3823,-1.3824,-1.3824,0,0,-1.3301,-1.3381,-1.3382,-1.3406,-1.3463,-1.3483,-1.3503,-1.3542,-1.3556,-1.3592,-1.3609,-1.3649,-1.367,-1.3694,-1.3726,-1.3733,-1.3717,-1.3755,-1.3756,-1.3746,-1.3723,-1.3705,-1.3702,-1.3736,-1.3736,-1.3736,-1.3719,0,-1.3279,-1.3318,-1.3362,-1.3385,-1.3409,-1.3457,-1.3474,-1.351,-1.3542,-1.3567,-1.3602,-1.3629,-1.3655,-1.367,-1.368,-1.3716,-1.3712,-1.3718,-1.3752,-1.3753,-1.3739,-1.37,-1.3681,-1.3663,-1.3717,-1.3717,-1.3717,0,-1.3258,-1.3293,-1.3318,-1.3374,-1.3386,-1.34,-1.344,-1.3463,-1.3505,-1.3528,-1.3555,-1.359,-1.3612,-1.3634,-1.3666,-1.3669,-1.3685,-1.3706,-1.3706,-1.371,-1.3733,-1.3702,-1.3658,-1.3655,-1.3715,-1.3715,-1.3715,0,-1.3205,-1.3259,-1.3281,-1.3301,-1.3366,-1.3375,-1.3402,-1.3446,-1.3466,-1.3501,-1.3515,-1.3551,-1.3571,-1.3598,-1.3641,-1.3653,-1.3668,-1.3693,-1.3687,-1.3686,-1.3687,-1.3687,-1.3645,-1.3699,-1.3699,-1.3699,-1.3699,0,-1.3176,-1.3189,-1.3259,-1.3272,-1.3289,-1.334,-1.3355,-1.3386,-1.3425,-1.3445,-1.3489,-1.3507,-1.3563,-1.3588,-1.3621,-1.3643,-1.3651,-1.367,-1.3679,-1.3666,-1.3663,-1.3677,-1.3679,-1.3698,-1.3699,-1.3699,-1.3699,0,-1.3119,-1.3166,-1.3194,-1.3254,-1.3269,-1.3279,-1.333,-1.3345,-1.338,-1.3405,-1.3414,-1.3469,-1.35,-1.3546,-1.3591,-1.3614,-1.363,-1.3644,-1.3616,-1.3621,-1.3612,-1.3612,-1.3577,-1.3575,-1.363,-1.363,-1.3629,0,-1.3097,-1.3109,-1.317,-1.3188,-1.3214,-1.3241,-1.3263,-1.3314,-1.3335,-1.3385,-1.3393,-1.3428,-1.3459,-1.3507,-1.355,-1.3585,-1.36,-1.3586,-1.3606,-1.3593,-1.36,-1.3598,-1.36,-1.3581,-1.358,-1.3579,-1.3578,0,-1.3052,-1.3075,-1.3105,-1.3144,-1.3169,-1.3202,-1.3237,-1.3248,-1.3306,-1.3327,-1.3361,-1.3385,-1.3431,-1.3465,-1.3507,-1.3534,-1.3566,-1.3572,-1.3573,-1.3559,-1.3542,-1.3551,-1.3602,-1.3572,-1.3573,-1.3573,-1.3574,-1.3574,-1.3011,-1.3024,-1.307,-1.3103,-1.3135,-1.3166,-1.3184,-1.3222,-1.325,-1.3293,-1.3321,-1.3353,-1.3396,-1.3454,-1.3481,-1.3506,-1.3519,-1.352,-1.352,-1.3519,-1.3514,-1.3538,-1.3514,-1.3514,-1.3514,-1.3514,-1.3515,0,-1.2968,-1.3001,-1.303,-1.3078,-1.3104,-1.3133,-1.3173,-1.3192,-1.322,-1.3258,-1.3288,-1.3326,-1.336,-1.3406,-1.3443,-1.3455,-1.347,-1.3463,-1.3462,-1.3468,-1.3501,-1.3496,-1.345,-1.345,-1.345,-1.345,-1.345,-1.345,-1.2949,-1.2973,-1.3001,-1.3041,-1.3074,-1.3106,-1.3126,-1.3156,-1.3186,-1.3228,-1.3256,-1.3287,-1.3328,-1.3369,-1.3401,-1.3414,-1.3425,-1.3413,-1.343,-1.346,-1.3466,-1.3471,-1.3468,-1.3416,-1.3415,-1.3396,-1.3396,-1.3396]}]]